This is the latest recevied weather packets stored in our database for station/object KD9ZDW. If no packets are shown the sender has not sent any weather packets the latest 1 day(s).
| Time | Temp. | Humidity | Pressure | Rain* | Wind** | Luminosity | Snow |
|---|---|---|---|---|---|---|---|
| 1778017925 | 8.89° C | 91% | 1010.8 hPa | 3.05 mm | 0 m/s | 35 W/m² | - |
| 1778017623 | 8.89° C | 91% | 1010.9 hPa | 3.56 mm | 0.45 m/s, 300° | 34 W/m² | - |
| 1778017320 | 8.89° C | 91% | 1010.8 hPa | 1.78 mm | 1.34 m/s, 279° | 34 W/m² | - |
| 1778017017 | 8.89° C | 91% | 1010.8 hPa | 0 mm | 0.45 m/s, 271° | 33 W/m² | - |
| 1778016714 | 8.89° C | 91% | 1010.8 hPa | 0 mm | 0 m/s | 29 W/m² | - |
| 1778016410 | 8.89° C | 91% | 1010.7 hPa | 0 mm | 0.45 m/s, 272° | 24 W/m² | - |
| 1778016108 | 8.89° C | 91% | 1010.8 hPa | 0 mm | 0.45 m/s, 286° | 28 W/m² | - |
| 1778015804 | 8.89° C | 91% | 1010.8 hPa | 0 mm | 0.45 m/s, 274° | 31 W/m² | - |
| 1778015502 | 8.89° C | 92% | 1010.5 hPa | 0 mm | 0 m/s | 35 W/m² | - |
| 1778015198 | 8.89° C | 92% | 1010.4 hPa | 0 mm | 0 m/s | 31 W/m² | - |
| 1778014895 | 8.89° C | 92% | 1010.3 hPa | 0 mm | 0 m/s | 49 W/m² | - |
| 1778014593 | 8.89° C | 92% | 1010.5 hPa | 0 mm | 0 m/s | 37 W/m² | - |
| 1778014291 | 8.89° C | 92% | 1010.4 hPa | 0 mm | 0 m/s | 37 W/m² | - |
| 1778013987 | 8.89° C | 92% | 1010.4 hPa | 0 mm | 0.45 m/s, 299° | 45 W/m² | - |
| 1778013685 | 8.89° C | 92% | 1010.6 hPa | 0 mm | 0.45 m/s, 312° | 47 W/m² | - |
| 1778013381 | 8.89° C | 92% | 1010.6 hPa | 0 mm | 0.45 m/s, 288° | 37 W/m² | - |
| 1778013079 | 8.89° C | 92% | 1010.6 hPa | 0 mm | 1.34 m/s, 346° | 38 W/m² | - |
| 1778012774 | 8.89° C | 92% | 1010.7 hPa | 0 mm | 0.45 m/s, 312° | 47 W/m² | - |
| 1778012471 | 8.89° C | 91% | 1010.7 hPa | 0 mm | 0 m/s | 53 W/m² | - |
| 1778012167 | 8.33° C | 91% | 1010.6 hPa | 1.27 mm | 1.34 m/s, 343° | 67 W/m² | - |
| 1778011865 | 8.89° C | 91% | 1010.7 hPa | 1.27 mm | 0 m/s | 41 W/m² | - |
| 1778011563 | 8.33° C | 91% | 1010.6 hPa | 1.78 mm | 0 m/s | 47 W/m² | - |
| 1778011259 | 8.89° C | 91% | 1010.9 hPa | 3.05 mm | 0.45 m/s, 358° | 51 W/m² | - |
| 1778010955 | 8.89° C | 91% | 1010.9 hPa | 1.27 mm | 0.89 m/s, 290° | 57 W/m² | - |
| 1778010653 | 8.89° C | 91% | 1010.6 hPa | 0 mm | 0.89 m/s, 326° | 51 W/m² | - |
* Rain latest hour (hover to see other rain measurements)
** Current wind speed in m/s (hover to see current wind gust speed)